This is the latest recevied weather packets stored in our database for station/object KE7JVX-3. If no packets are shown the sender has not sent any weather packets the latest 10 day(s).
| Time | Temp. | Humidity | Pressure | Rain* | Wind** | Luminosity | Snow |
|---|---|---|---|---|---|---|---|
| 1777832369 | 11.67° C | 36% | 1013.2 hPa | 0 mm | - | - | - |
| 1777831767 | 12.22° C | 36% | 1013.2 hPa | 0 mm | - | - | - |
| 1777831167 | 11.67° C | 38% | 1013.4 hPa | 0 mm | - | - | - |
| 1777830567 | 11.11° C | 41% | 1013.5 hPa | 0 mm | - | - | - |
| 1777829967 | 11.11° C | 39% | 1013.4 hPa | 0 mm | - | - | - |
| 1777829367 | 10.56° C | 41% | 1013.5 hPa | 0 mm | - | - | - |
| 1777828767 | 10.56° C | 42% | 1013.5 hPa | 0 mm | - | - | - |
| 1777828167 | 10° C | 43% | 1013.4 hPa | 0 mm | - | - | - |
| 1777827567 | 10° C | 42% | 1013.6 hPa | 0 mm | - | - | - |
| 1777826967 | 10° C | 42% | 1013.5 hPa | 0 mm | - | - | - |
| 1777826372 | 10° C | 43% | 1013.5 hPa | 0 mm | - | - | - |
| 1777825767 | 9.44° C | 43% | 1013.5 hPa | 0 mm | - | - | - |
| 1777825167 | 9.44° C | 44% | 1013.4 hPa | 0 mm | - | - | - |
| 1777824567 | 9.44° C | 43% | 1013.3 hPa | 0 mm | - | - | - |
| 1777823967 | 9.44° C | 42% | 1013.3 hPa | 0 mm | - | - | - |
| 1777823367 | 9.44° C | 43% | 1013.3 hPa | 0 mm | - | - | - |
| 1777822767 | 9.44° C | 41% | 1013.3 hPa | 0 mm | - | - | - |
| 1777822167 | 9.44° C | 42% | 1013.4 hPa | 0 mm | - | - | - |
| 1777821568 | 8.89° C | 42% | 1013.4 hPa | 0 mm | - | - | - |
| 1777820967 | 8.89° C | 42% | 1013.4 hPa | 0 mm | - | - | - |
| 1777820367 | 8.89° C | 42% | 1013.4 hPa | 0 mm | - | - | - |
| 1777819767 | 8.89° C | 41% | 1013.3 hPa | 0 mm | - | - | - |
| 1777818568 | 8.89° C | 43% | 1013.3 hPa | 0 mm | - | - | - |
| 1777817968 | 8.33° C | 42% | 1013.3 hPa | 0 mm | - | - | - |
| 1777817367 | 8.33° C | 43% | 1013 hPa | 0 mm | - | - | - |
* Rain latest hour (hover to see other rain measurements)
** Current wind speed in m/s (hover to see current wind gust speed)